Ellensburg, WA
on Thursday, January 24, 2013

Thursday
Previous Day Next Day
Daily Summary
 ActualAverage (KYKM)Record (KYKM)
Temperature
Mean Temperature °F 32°F  
Max Temperature 27°F 41°F 57°F (1984)
Min Temperature 15°F 24°F -11°F (1949)
Degree Days
Heating Degree Days 44 33  
Month to date heating degree days 834  
Since 1 July heating degree days 3497  
Cooling Degree Days 0 0  
Month to date cooling degree days 0  
Year to date cooling degree days 0  
Moisture
Dew Point 18°F   
Average Humidity 82    
Maximum Humidity 88    
Minimum Humidity 77    
Precipitation
Precipitation 0.00 in 0.03 in 0.36 in (1959)
Month to date precipitation 0.92  
Year to date precipitation 0.92  
Snow
Snow 0.00 in 0.10 in 2.70 in (1972)
Month to date snowfall 4.5  
Year to date snowfall 4.5  
Since 1 July snowfall 17.5  
Snow Depth in   
Wind
Wind Speed 2 mph   
Max Wind Speed 7 mph   
Max Gust Speed mph   
Visibility 4 miles   
Events Fog   

Key: T is trace of precipitation, MM is missing value
Source: NWS Daily Summary
Time(PST)TemperatureDew PointHumidity Pressure Visibility Wind DirectionWind SpeedGust SpeedPrecipitationEvents Conditions
2:53 AM 17.1°F 10.9°F 77% 30.21 in - Calm Calm - N/A   Clear
3:23 AM 17.6°F 12.2°F 79% 30.15 in - Calm Calm - N/A   Scattered Clouds
3:32 AM 17.6°F 14.0°F 86% 30.15 in - Calm Calm - N/A   Mostly Cloudy
3:53 AM 18.0°F 12.9°F 81% 30.23 in - Calm Calm - N/A   Overcast
4:53 AM 17.1°F 12.9°F 84% 30.24 in - East 4.6 mph - N/A   Overcast
5:53 AM 16.0°F 12.0°F 84% 30.26 in - Calm Calm - N/A   Overcast
6:53 AM 16.0°F 10.9°F 81% 30.27 in - Calm Calm - N/A   Overcast
7:40 AM 15.8°F 12.2°F 86% 30.19 in 0.2 miles Calm Calm - N/A Fog Light Freezing Fog
7:53 AM 16.0°F 12.0°F 84% 30.27 in 0.2 miles Calm Calm - N/A Fog Light Freezing Fog
8:03 AM 15.8°F 12.2°F 86% 30.19 in - East 3.5 mph - N/A   Overcast
8:53 AM 16.0°F 12.0°F 84% 30.29 in 0.2 miles SSE 4.6 mph - N/A Fog Light Freezing Fog
9:46 AM 19.4°F 15.8°F 86% 30.21 in 1.2 miles Calm Calm - N/A   Overcast
9:53 AM 19.0°F 16.0°F 88% 30.29 in 3.0 miles Calm Calm - N/A   Overcast
10:10 AM 19.4°F 15.8°F 86% 30.21 in 2.5 miles WNW 4.6 mph - N/A   Haze
10:28 AM 21.2°F 17.6°F 86% 30.22 in 1.2 miles West 4.6 mph - N/A   Overcast
10:38 AM 21.2°F 15.8°F 80% 30.22 in 1.0 miles WNW 6.9 mph - N/A   Haze
10:51 AM 21.2°F 17.6°F 86% 30.23 in 0.8 miles WNW 5.8 mph - N/A   Haze
10:53 AM 21.9°F 17.1°F 82% 30.30 in 0.8 miles West 5.8 mph - N/A   Haze
10:59 AM 21.2°F 17.6°F 86% 30.23 in 1.2 miles West 5.8 mph - N/A   Overcast
11:53 AM 24.1°F 19.9°F 84% 30.27 in 1.2 miles Calm Calm - N/A   Overcast
12:30 PM 24.8°F 21.2°F 86% 30.19 in 2.0 miles Calm Calm - N/A   Overcast
12:53 PM 26.1°F 21.0°F 81% 30.26 in 3.0 miles East 3.5 mph - N/A   Haze
1:53 PM 27.0°F 21.0°F 78% 30.24 in 4.0 miles Calm Calm - N/A   Haze
2:53 PM 26.1°F 21.0°F 81% 30.23 in 3.0 miles ESE 3.5 mph - N/A   Haze
3:35 PM 26.6°F 21.2°F 80% 30.16 in 2.5 miles Calm Calm - N/A   Overcast
3:53 PM 26.1°F 21.0°F 81% 30.24 in - East 4.6 mph - N/A   Overcast
4:53 PM 26.1°F 21.0°F 81% 30.23 in 5.0 miles ESE 3.5 mph - N/A   Haze
5:38 PM 26.6°F 21.2°F 80% 30.15 in 7.0 miles ESE 4.6 mph - N/A   Overcast
5:53 PM 26.1°F 21.0°F 81% 30.22 in 7.0 miles East 4.6 mph - N/A   Overcast
6:24 PM 26.6°F 21.2°F 80% 30.16 in 6.0 miles SSE 3.5 mph - N/A   Haze
6:39 PM 26.6°F 21.2°F 80% 30.16 in 6.0 miles Calm Calm - N/A   Haze
6:49 PM 26.6°F 21.2°F 80% 30.17 in 6.0 miles NNW 3.5 mph - N/A   Haze
6:53 PM 26.1°F 21.0°F 81% 30.25 in 6.0 miles Calm Calm - N/A   Haze
7:00 PM 26.6°F 21.2°F 80% 30.15 in 6.0 miles ENE 3.5 mph - N/A   Haze
7:19 PM 26.6°F 21.2°F 80% 30.14 in 6.0 miles East 6.9 mph - N/A   Haze
7:53 PM 26.1°F 21.0°F 81% 30.22 in 7.0 miles SE 5.8 mph - N/A   Overcast
8:53 PM 26.1°F 21.0°F 81% 30.22 in 6.0 miles Calm Calm - N/A   Haze
9:09 PM 26.6°F 21.2°F 80% 30.14 in 6.0 miles Calm Calm - N/A   Haze
9:53 PM 26.1°F 21.0°F 81% 30.20 in 5.0 miles Calm Calm - N/A   Haze
10:53 PM 26.1°F 21.0°F 81% 30.20 in 5.0 miles Calm Calm - N/A   Haze
11:32 PM 26.6°F 21.2°F 80% 30.14 in 5.0 miles Calm Calm - N/A   Haze
11:41 PM 26.6°F 21.2°F 80% 30.13 in 5.0 miles Calm Calm - N/A   Haze
11:53 PM 26.1°F 19.9°F 78% 30.19 in 5.0 miles Calm Calm - N/A   Haze
Moon Phase
Jan. 24 Jan. 26 Feb. 03 Feb. 10 Feb. 17
Sunrise:07:35 AM (PST) Moon Rise:02:58 PM (PST)
Sunset:04:53 PM (PST) Moon Set:05:39 AM (PST)

Copyright © 2014 The Weather Underground, Inc.